Location: Mt. Cuba Astronomical Observatory
(39.8100°N, 75.6300°W)
Time: 18:34:39
(UTC-04:00)

Daily predictions for brighter satellites

Satellite Brightness Start Highest point End
(mag) Time Altitude Azimuth Time Altitude Azimuth Time Altitude Azimuth
CZ-2C R/B 4.1 19:15:29 10° SSW 19:20:11 40° W 19:24:47 10° NNW
BREEZE-M DEB (TANK) 1.6 19:19:10 10° WNW 19:21:13 76° SSW 19:25:03 10° SE
Cosmos 1953 4.1 19:20:34 10° ESE 19:22:19 13° E 19:24:04 10° ENE
Cosmos 1980 3.8 19:18:28 10° SSW 19:24:07 87° WNW 19:29:49 10° NNE
Cosmos 921 Rocket 3.1 19:20:35 10° NNW 19:24:48 79° WSW 19:28:57 10° S
COSMOS 2455 4.2 19:19:54 10° SW 19:25:36 44° NW 19:31:22 10° NNE
NOAA 12 4.2 19:21:00 10° SSE 19:26:07 57° ENE 19:31:18 10° N
ATLAS 5 CENTAUR R/B 3.2 19:24:10 10° SSE 19:27:17 18° ESE 19:30:32 10° ENE
SL-16 R/B 2.6 19:23:43 10° S 19:28:58 40° ESE 19:34:15 10° NE
Cosmos 1607 4.1 19:24:30 10° SW 19:30:41 80° WNW 19:36:52 10° NNE
ATLAS CENTAUR R/B 3.6 19:26:51 10° S 19:31:18 50° ESE 19:44:07 10° NE
IDEFIX/ARIANE 42P 4.4 19:27:11 10° SSW 19:31:57 36° W 19:36:47 10° NNW
Cosmos 292 Rocket 3.8 19:28:54 10° SSW 19:33:41 86° ESE 19:38:31 10° NNE
SL-19 R/B 4.5 19:28:11 10° SSE 19:33:46 84° WSW 19:39:37 10° NNW
Spot 2 Rocket 3.8 19:31:12 10° SE 19:36:00 46° ENE 19:40:49 10° N
Cosmos 2056 Rocket 3.8 19:31:08 10° N 19:36:28 53° ENE 19:41:45 10° SE
BREEZE-M TANK 3.7 19:25:44 10° WNW 19:38:07 68° SW 19:41:40 10° SE
Cosmos 1076 Rocket 4.3 19:36:27 10° NNE 19:40:19 31° ENE 19:44:12 10° SE
Abrixas rocket 4.1 19:38:50 10° WNW 19:41:45 27° SW 19:44:37 10° SSE
Cosmos-2242 4.2 19:38:58 10° SE 19:42:14 21° E 19:45:31 10° NE
Meteor 1-22 Rocket 4.1 19:36:58 10° S 19:42:17 63° E 19:47:32 10° NNE
NOSS 3-2 (C) 3.9 19:36:55 10° S 19:42:26 39° ESE 19:48:21 10° NE
Spot 1 4.3 19:38:54 10° SSE 19:43:42 64° ENE 19:48:15 10° N
Resurs 01 Rocket 1.8 19:40:49 10° SSE 19:45:09 53° ENE 19:49:29 10° N
SAR-Lupe-1 4.4 19:42:06 10° S 19:45:37 67° WSW 19:49:11 10° NNW
Cosmos 1437 2.6 19:42:21 10° N 19:45:38 78° E 19:48:53 10° SSE
Cosmos 1805 4.4 19:42:38 10° SE 19:45:44 23° E 19:48:51 10° NE
Cosmos 1371 Rocket 4.0 19:40:36 10° NNW 19:45:55 86° ENE 19:51:15 10° SSE
Meteor 2-5 Rocket 4.3 19:41:54 10° NNW 19:47:29 63° W 19:52:57 10° S
Cosmos 1408 Rocket 4.2 19:44:55 10° N 19:48:55 34° ENE 19:52:51 10° SE
H-2A R/B 4.1 19:47:56 15° ESE 19:50:00 22° ENE 19:53:04 10° NNE
Okean 3 Rocket 3.6 19:46:29 10° N 19:51:03 86° E 19:55:35 10° S
Resurs 1-3 3.8 19:47:28 10° SE 19:51:40 47° ENE 19:55:54 10° N
ALOS 2.9 19:48:32 10° SE 19:52:45 35° ENE 19:56:59 10° N
Cosmos 1441 Rocket 4.3 19:49:25 10° NNW 19:53:01 46° W 19:56:35 10° S
Cosmos 2219 Rocket 3.9 19:48:10 10° SW 19:53:16 35° WNW 19:58:26 10° N
Helios 1B rocket 2.4 19:50:32 10° NNE 19:54:37 64° ESE 19:58:41 10° S
Aureole 2 Rocket 2.9 19:51:11 10° S 19:55:32 66° ESE 19:59:52 10° NNE
Cosmos 2278 Rocket 2.8 19:50:05 10° NNW 19:55:39 60° WSW 20:01:11 10° S
SJ-6B 3.5 19:51:57 10° S 19:55:49 59° W 19:59:48 10° NNW
FREGAT/IRIS 3.0 19:53:04 10° S 19:56:07 66° WSW 19:59:13 10° NNW
Meteor 1-24 Rocket 3.7 19:50:29 10° N 19:56:13 88° E 20:01:41 10° S
Cosmos 2297 3.7 19:52:27 10° NNW 19:58:08 71° ENE 20:03:45 10° SSE
ASTEX 1 4.2 19:55:26 10° NNE 19:59:42 29° E 20:03:56 10° SSE
Meteor 1-28 Rocket 4.0 19:57:34 10° N 20:01:13 53° WNW 20:04:50 10° SSW
Cosmos 1758 3.8 19:58:14 10° SSE 20:02:00 37° E 20:05:48 10° NNE
Cosmos 1707 4.2 19:58:29 10° NNW 20:02:06 39° W 20:05:42 10° SSW
Cosmos 1072 Rocket 4.4 19:56:01 10° S 20:02:07 78° E 20:08:14 10° N
Cosmos 1624 Rocket 4.1 19:58:59 10° NNW 20:04:13 80° WSW 20:09:24 10° SSE
METEOR-M 4.2 19:59:49 10° SSE 20:05:10 85° WSW 20:10:34 10° NNW
Cosmos 1378 3.1 20:03:10 10° N 20:06:56 87° W 20:10:39 10° S
FENGYUN 3A 3.8 20:03:53 10° SSE 20:09:04 52° ENE 20:14:17 10° N
Nadezhda 4 Rocket 4.4 20:03:21 10° N 20:09:13 39° ENE 20:13:51 15° SE
Cosmos 1743 Rocket 4.3 20:10:51 10° NNE 20:14:50 31° ENE 20:15:40 29° E
Cosmos 1544 3.8 20:15:09 32° E 20:15:09 32° E 20:18:14 10° NNE
Cosmos 2369 Rocket 3.8 20:12:18 10° NNE 20:15:43 16° NE 20:16:33 16° ENE
Meteor 1-29 3.0 20:12:18 10° N 20:15:50 80° WNW 20:19:19 10° SSW
Cosmos 1603 4.2 20:10:42 10° S 20:15:54 37° ESE 20:21:08 10° NE
CZ-4C R/B 3.6 20:11:15 10° WSW 20:16:15 39° NW 20:21:52 10° NNE
OAO 3 Rocket 3.8 20:12:27 10° WSW 20:16:56 41° SSE 20:18:46 29° ESE
HJ-1C 4.2 20:13:57 10° S 20:17:13 53° W 20:20:32 10° NNW
Cosmos 1513 Rocket 4.5 20:13:03 10° S 20:19:24 80° E 20:25:50 10° N
FengYun 1-2 T 4.2 20:13:57 10° SSE 20:19:29 89° ENE 20:25:01 10° NNW
ATLAS CENTAUR R/B 2.0 20:15:52 10° NW 20:19:57 51° WSW 20:23:05 14° S
USA 215 3.7 20:14:58 10° NE 20:21:23 61° NW 20:27:47 10° WSW
Cosmos 2333 Rocket 4.4 20:19:35 10° WSW 20:24:27 27° NW 20:29:21 10° N
Atlas Centaur 2 3.9 20:19:58 10° WSW 20:27:31 37° SSW 20:31:49 21° SE
Meteor 1-21 Rocket 4.1 20:26:51 10° N 20:32:25 68° E 20:36:13 21° SSE
Cosmos 1452 Rocket 3.4 20:28:08 10° NNW 20:33:25 72° ENE 20:36:02 30° SSE
ERS-1 Rocket 3.9 20:34:25 29° ENE 20:34:25 29° ENE 20:38:29 10° N
Cosmos 2034 Rocket 4.0 20:29:57 10° S 20:36:12 84° W 20:42:34 10° N
Helios 1A 4.2 20:32:33 10° S 20:36:31 43° W 20:40:31 10° NNW
Meteor 2-12 Rocket 4.4 20:35:36 10° S 20:41:46 90° NW 20:47:57 10° N
SeaSat 1 2.3 20:40:46 10° NNE 20:45:44 83° ESE 20:50:41 10° SSW
Cosmos 468 4.3 20:42:51 10° SSW 20:48:05 77° ESE 20:53:20 10° NNE
Cosmos 1674 3.9 20:45:32 10° N 20:47:51 32° NNE 20:47:51 32° NNE
Cosmos 1766 Rocket 4.4 20:45:48 10° NNW 20:50:02 49° W 20:54:06 11° SSW
H-2A R/B 4.4 20:57:31 13° NNE 20:57:31 13° NNE 20:58:15 10° NNE
NOSS 3-2 (A) 4.2 20:50:49 10° SW 20:56:45 53° NW 21:03:15 10° NNE
Cosmos 1953 3.5 20:54:33 10° SSW 20:58:20 41° W 21:02:08 10° N
Cosmos 1420 Rocket 3.9 20:53:12 10° NNW 20:58:30 67° ENE 20:58:50 65° E
CZ-2D R/B 4.3 21:01:16 33° SW 21:02:28 44° W 21:06:13 10° NNW
Cosmos 1269 Rocket 3.9 21:02:21 10° SSW 21:07:38 88° ESE 21:12:57 10° NNE
ATLAS 5 CENTAUR R/B 2.5 21:06:43 10° SW 21:11:23 54° NW 21:16:21 11° NNE
BREEZE-M DEB (TANK) 3.7 21:01:30 10° WNW 21:12:01 50° N 21:12:53 45° NNE
Cosmos 724 4.4 21:07:15 10° SW 21:13:09 75° WNW 21:19:15 10° NNE
SL-16 R/B 4.1 21:08:17 10° WSW 21:13:10 29° WNW 21:18:07 10° N
Cosmos 1500 Rocket 4.5 21:21:01 10° NNW 21:24:24 47° NW 21:24:24 47° NW
Envisat 3.6 21:27:00 48° N 21:27:00 48° N 21:30:41 10° N
ALOS 4.5 21:26:38 10° SW 21:30:15 22° W 21:33:53 10° NW
Cosmos 1655 Rocket 4.3 21:38:28 10° N 21:43:18 56° N 21:43:18 56° N
Cosmos 2369 Rocket 3.2 21:54:45 10° NNW 21:58:21 41° NNW 21:58:21 41° NNW
Cosmos 1943 Rocket 4.0 22:10:19 10° NNW 22:12:33 24° N 22:12:33 24° N
